Richardson's Hourly Summary for Friday, March 17, 2017
Hour Temp
(f)
RH
(%)
Solar Rad.
(MJ/m2)
Rainfall
(in)
Wind
(mph)
3/17/2017 12:00 AM 65 79 0 0 7.96
3/17/2017 1:00 AM 64 82 0 0 7.61
3/17/2017 2:00 AM 63 85 0 0 6.97
3/17/2017 3:00 AM 64 82 0 0 8.13
3/17/2017 4:00 AM 66 80 0 0 8.24
3/17/2017 5:00 AM 66 78 0 0 8.76
3/17/2017 6:00 AM 67 76 0 0 8.37
3/17/2017 7:00 AM 67 73 0 0 9.08
3/17/2017 8:00 AM 67 73 0.01 0 8.96
3/17/2017 9:00 AM 67 73 0.17 0 9.57
3/17/2017 10:00 AM 68 73 0.53 0 10.83
3/17/2017 11:00 AM 69 69 1.14 0 10.77
3/17/2017 12:00 PM 71 66 1.87 0 11.53
3/17/2017 1:00 PM 72 66 1.3 0 10.8
3/17/2017 2:00 PM 72 64 1.3 0 10.43
3/17/2017 3:00 PM 73 63 1.64 0 10.7
3/17/2017 4:00 PM 73 63 1.5 0 10.32
3/17/2017 5:00 PM 74 60 0.91 0 10.07
3/17/2017 6:00 PM 74 61 0.56 0 9.64
3/17/2017 7:00 PM 75 58 0.27 0 6.97
3/17/2017 8:00 PM 75 58 0.02 0 5.04
3/17/2017 9:00 PM 74 59 0 0 3.15
3/17/2017 10:00 PM 73 60 0 0 2.9
3/17/2017 11:00 PM 72 62 0 0 1.59
Data Summary 69 69 11.22 0.00 8.27